Regional Weather Roundup
Issued by NWS

Home | Current Version | Previous Version | Text Only | Print | Product List | Glossary Off
Versions: 1 2 3 4 5 6 7 8 9 10 11 12 13 14 15 16 17 18 19 20 21 22 23 24 25 26 27 28 29 30 31 32 33 34 35 36 37 38 39 40 41 42 43 44 45 46 47 48 49 50

000
ASUS43 KOAX 310410
RWRNE

WEATHER ROUNDUP FOR NEBRASKA
NATIONAL WEATHER SERVICE OMAHA NE
1100 PM CDT SAT AUG 30 2014

NOTES: SATELLITE DATA IS BEING USED TO AUGMENT CLOUD COVER ABOVE
       12000 FEET.
       "FAIR" INDICATES FEW OR NO CLOUDS BELOW 12,000 FEET WITH NO
       SIGNIFICANT WEATHER AND/OR OBSTRUCTIONS TO VISIBILITY.

  * THESE STATIONS DO NOT REPORT WEATHER SUCH AS RAIN...SNOW OR FOG.

NEZ001>004-019>022-054>056-310500-
NEBRASKA PANHANDLE

CITY           SKY/WX    TMP DP  RH WIND       PRES   REMARKS
SCOTTSBLUFF    CLOUDY    76  47  35 W7        29.87S
ALLIANCE       CLOUDY    71  50  47 S13       29.87S
CHADRON        CLOUDY    67  58  72 W5        29.79R
KIMBALL        CLOUDY    66  51  57 SW8       29.93F
SIDNEY         CLOUDY    73  47  39 SW8       29.92S
$$

NEZ057>060-069>072-079>082-310500-
SOUTHWEST NEBRASKA

CITY           SKY/WX    TMP DP  RH WIND       PRES   REMARKS
NORTH PLATTE   CLEAR     67  61  81 E6        29.82R
IMPERIAL       PTCLDY    76  55  48 S18       29.84R
LEXINGTON      CLEAR     71  62  72 S10       29.83S
MCCOOK         CLEAR     76  55  48 S15G22    29.84R
OGALLALA       MOCLDY    73  55  51 SW21G31   29.84R
$$

NEZ005>010-023>029-035>040-094-310500-
NORTH CENTRAL NEBRASKA

CITY           SKY/WX    TMP DP  RH WIND       PRES   REMARKS
VALENTINE      PTCLDY    74  63  68 S21G28    29.73F
AINSWORTH      CLEAR     71  64  78 S18       29.77F
BROKEN BOW     CLEAR     69  65  86 SE9       29.82S
O`NEILL        CLEAR     72  67  86 SE14      29.80S
ORD            CLEAR     72  65  78 SE8       29.80S
THEDFORD       CLEAR     73  64  73 S13       29.80S
$$

NEZ041-046>049-061>064-073>077-083>087-310500-
SOUTH CENTRAL NEBRASKA

CITY           SKY/WX    TMP DP  RH WIND       PRES   REMARKS
GRAND ISLAND   CLEAR     73  64  73 S15       29.84S
AURORA         CLEAR     70  66  86 S8        29.85S
HASTINGS       CLEAR     72  62  71 S10       29.84F
HEBRON         CLEAR     71  62  73 SE7       29.86S
HOLDREGE       CLEAR     72  60  66 S10       29.84S
KEARNEY *      CLEAR     70  63  78 SE12      29.84S
YORK           CLEAR     72 N/A N/A SE7       29.85S
$$

NEZ011>018-030>034-042>045-310500-
NORTHEAST NEBRASKA

CITY           SKY/WX    TMP DP  RH WIND       PRES   REMARKS
NORFOLK        CLEAR     70  62  76 SE13      29.83F
ALBION         CLEAR     69  64  86 SE6       29.83S
BLAIR          CLEAR     71  64  78 SE7       29.87S
FREMONT        CLEAR     73  63  71 SE8       29.86S
TEKAMAH        CLEAR     68  65  90 S3        29.85S
WAYNE          CLEAR     67  64  90 SE8       29.85S
$$

NEZ050>053-065>068-078-088>093-310500-
SOUTHEAST NEBRASKA

CITY           SKY/WX    TMP DP  RH WIND       PRES   REMARKS
LINCOLN        CLEAR     76  63  64 SE8       29.86S
OMAHA EPPLEY   CLEAR     71  64  78 SE8       29.87S
BEATRICE       CLEAR     74  66  76 SE9       29.86S
FALLS CITY     CLEAR     71  67  87 SE3       29.88R
NEBRASKA CITY  CLEAR     69  69  99 S6        29.88S
PLATTSMOUTH    CLEAR     70  64  81 SE6       29.88S
$$

NEZ044-045-051>053-067-310500-
OMAHA AREA

CITY           SKY/WX    TMP DP  RH WIND       PRES   REMARKS
OMAHA EPPLEY   CLEAR     71  64  78 SE8       29.87S
BLAIR          CLEAR     71  64  78 SE7       29.87S
FREMONT        CLEAR     73  63  71 SE8       29.86S
MILLARD        CLEAR     71  64  80 SE5       29.86S
OFFUTT AFB     CLEAR     69  68  98 E5        29.86S
PLATTSMOUTH    CLEAR     70  64  81 SE6       29.88S
WAHOO          FAIR      67  63  85 SE6       29.85F
$$



USA.gov is the U.S. government's official web portal to all federal, state and local government web resources and services.